Inquirer Daily News

Weather

Get conditions and forecasts for any City, State, ZIP code or Country:  
Trenton, NJ
on Thursday, January 24, 2013

Thursday
Previous Day Next Day
Daily Summary
 ActualAverageRecord
Temperature
Mean Temperature °F 31°F  
Max Temperature 25°F 39°F 70°F (1967)
Min Temperature 10°F 23°F -1°F (1907)
Degree Days
Heating Degree Days 47 34  
Month to date heating degree days 723 815  
Since 1 July heating degree days 2481 2710  
Cooling Degree Days 0 0  
Month to date cooling degree days 0 0  
Year to date cooling degree days 0 0  
Moisture
Dew Point 2°F   
Average Humidity 56    
Maximum Humidity 84    
Minimum Humidity 27    
Precipitation
Precipitation 0.00 in 0.11 in 1.87 in (1979)
Month to date precipitation 1.64 2.45  
Year to date precipitation 1.64 2.45  
Wind
Wind Speed 9 mph   
Max Wind Speed 24 mph   
Max Gust Speed 35 mph   
Visibility 10 miles   
Events     

Key: T is trace of precipitation, MM is missing value
Source: NWS Daily Summary
Time(EST)TemperatureDew PointHumidity Pressure Visibility Wind DirectionWind SpeedGust SpeedPrecipitationEvents Conditions
12:53 AM 10.9°F 6.1°F 81% 30.14 in 9.0 miles Calm Calm - N/A   Overcast
1:53 AM 10.9°F 5.0°F 77% 30.13 in 10.0 miles Calm Calm - N/A   Overcast
2:53 AM 10.0°F 5.0°F 80% 30.12 in 10.0 miles Calm Calm - N/A   Overcast
3:53 AM 12.0°F 6.1°F 77% 30.12 in 10.0 miles Calm Calm - N/A   Overcast
4:53 AM 12.0°F 7.0°F 80% 30.13 in 9.0 miles Calm Calm - N/A   Overcast
5:53 AM 12.9°F 8.1°F 81% 30.15 in 9.0 miles NNW 3.5 mph - N/A   Overcast
6:53 AM 12.9°F 6.1°F 74% 30.17 in 10.0 miles North 3.5 mph - N/A   Overcast
7:53 AM 12.9°F 5.0°F 71% 30.19 in 10.0 miles North 4.6 mph - N/A   Clear
8:53 AM 15.1°F 3.9°F 61% 30.21 in 10.0 miles North 8.1 mph - N/A   Clear
9:53 AM 18.0°F 5.0°F 57% 30.23 in 10.0 miles North 9.2 mph - N/A   Clear
10:53 AM 21.0°F 3.0°F 46% 30.25 in 10.0 miles North 12.7 mph - N/A   Clear
11:53 AM 21.9°F -0.0°F 38% 30.25 in 10.0 miles NNW 15.0 mph 21.9 mph N/A   Clear
12:53 PM 24.1°F -0.0°F 35% 30.25 in 10.0 miles NNW 17.3 mph 27.6 mph N/A   Partly Cloudy
1:53 PM 25.0°F -2.0°F 31% 30.25 in 10.0 miles North 16.1 mph 25.3 mph N/A   Overcast
2:53 PM 24.1°F -5.1°F 28% 30.27 in 10.0 miles North 17.3 mph 34.5 mph N/A   Clear
3:53 PM 24.1°F -2.9°F 31% 30.31 in 10.0 miles North 15.0 mph 28.8 mph N/A   Clear
4:53 PM 21.9°F -2.0°F 35% 30.34 in 10.0 miles North 15.0 mph 23.0 mph N/A   Clear
5:53 PM 21.0°F -2.9°F 35% 30.37 in 10.0 miles NNW 13.8 mph 21.9 mph N/A   Clear
6:53 PM 19.9°F -2.0°F 38% 30.40 in 10.0 miles North 5.8 mph - N/A   Clear
7:53 PM 19.0°F -0.0°F 43% 30.40 in 10.0 miles NNW 8.1 mph - N/A   Clear
8:53 PM 19.0°F 1.0°F 46% 30.41 in 10.0 miles North 8.1 mph - N/A   Clear
9:53 PM 18.0°F -0.0°F 45% 30.41 in 10.0 miles North 11.5 mph 17.3 mph N/A   Clear
10:53 PM 18.0°F -0.9°F 44% 30.42 in 10.0 miles NNW 13.8 mph 20.7 mph N/A   Clear
11:53 PM 17.1°F -0.9°F 45% 30.43 in 10.0 miles North 6.9 mph 18.4 mph N/A   Clear
Astronomy
Sunrise:07:14 AM (EST) Moon Rise:03:08 PM (EST)1/24
Sunset:05:08 PM (EST) Moon Set:05:10 AM (EST)1/24
Moon Phase
Jan. 24 Jan. 26 Feb. 03 Feb. 10 Feb. 17

Copyright © 2014 The Weather Underground, Inc.